Content
SEND FEEDBACK

Daily
Averages
Monthly
Summary
United States of America

BLUFF CITY, TENNESSEE


Home > North America > United States > Tennessee
Elevation: 45 meters     Latitude: 36 28N     Longitude: 082 16W

WEATHER
 
SELECT A DAY
Number of Records: 130,433;   Date Range: 4/1/09 - 9/21/14
 
SHARE

PRINT THIS DATA

[ ← Previous Day ]
WEATHER ALMANAC - 31 JANUARY, 2013
[ Next Day → ]
[ °F ]   °C
Weather ElementAverageHighLow
Temperature0.1 °C3 °C (1:15 am)-2 °C (6:15 am)
Dewpoint-5.8 °C2 °C (1:15 am)-8 °C (8:55 am)
Humidity65.8 %93 % (1:15 am)48 % (4:35 pm)
Barometer1011.9 hPa1015.2 hPa (6:55 pm)1002.7 hPa (1:15 am)
Wind Speed19.2 km/h33.3 km/h (12:15 pm)
Wind Gust59.2 km/h (1:15 am)
Weather ElementAverage
Visibility15.3 km
Wind DirectionWSW (261.8 °)

Weather ElementTotal
Precipitation---
Heating Degree Days17.8 (Base 18.3)
Averaged from 68 records on 31 January, 2013
WEATHER CONDITIONS BREAKOUT
WIND DIRECTION BREAKOUT
WEATHER BY HOUR - 31 JANUARY, 2013
[ °F ]   °C
Local TimeTemperatureDewpointHumidityBarometerVisibilityWind DirectionWind SpeedGust SpeedPrecipitationEventsConditions
1:15 AM3 °C2 °C93 %1002.7 hPa4.8 kmWest (260°)31.5 km/h59.2 km/hRainRain
1:35 AM2 °C1 °C93 %1003 hPa4.8 kmWSW (250°)20.4 km/hRainRain
1:55 AM2 °C1 °C93 %1003 hPa14.5 kmWSW (250°)22.2 km/hLight Drizzle
2:15 AM2 °C1 °C93 %1003.7 hPa16.1 kmWSW (250°)27.8 km/hRainLight Rain
2:35 AM2 °C0 °C87 %1004.4 hPa16.1 kmWSW (250°)20.4 km/hLight Drizzle
2:55 AM1 °C-1 °C87 %1005.1 hPa6.4 kmWest (280°)27.8 km/hRainLight Rain
3:15 AM1 °C-1 °C87 %1006.1 hPa16.1 kmWNW (290°)16.7 km/hRainLight Rain
3:35 AM0 °C-1 °C93 %1006.4 hPa16.1 kmWest (280°)24.1 km/hRainLight Rain
3:55 AM0 °C-2 °C87 %1006.8 hPa16.1 kmWest (280°)22.2 km/h35.2 km/hOvercast
4:15 AM0 °C-4 °C75 %1007.1 hPa16.1 kmWest (280°)24.1 km/h48.1 km/hMostly Cloudy
4:35 AM-1 °C-4 °C80 %1007.8 hPa16.1 kmWest (270°)31.5 km/h42.6 km/hRainLight Rain
4:55 AM-1 °C-5 °C75 %1008.1 hPa16.1 kmWest (270°)24.1 km/hRainLight Rain
5:15 AM-1 °C-6 °C69 %1008.5 hPa16.1 kmWest (270°)24.1 km/hOvercast
5:35 AM-1 °C-6 °C69 %1008.8 hPa16.1 kmWest (270°)20.4 km/hOvercast
5:55 AM-1 °C-6 °C69 %1009.1 hPa16.1 kmWest (280°)29.6 km/hRainLight Rain
6:15 AM-2 °C-6 °C74 %1009.1 hPa16.1 kmWest (280°)18.5 km/hRainLight Rain
6:35 AM-2 °C-6 °C74 %1009.5 hPa16.1 kmWest (270°)16.7 km/hRainLight Rain
6:55 AM-2 °C-6 °C74 %1009.8 hPa16.1 kmWest (260°)20.4 km/hOvercast
7:15 AM-1 °C-6 °C69 %1009.8 hPa16.1 kmWest (260°)13 km/hRainLight Rain
7:35 AM-2 °C-6 °C74 %1010.5 hPa16.1 kmWSW (250°)24.1 km/hOvercast
7:55 AM-2 °C-7 °C69 %1011.2 hPa16.1 kmWest (280°)20.4 km/hOvercast
8:15 AM-2 °C-7 °C69 %1011.2 hPa16.1 kmWest (270°)18.5 km/hRainLight Rain
8:35 AM-2 °C-7 °C69 %1011.9 hPa16.1 kmWest (260°)16.7 km/hOvercast
8:55 AM-2 °C-8 °C64 %1012.5 hPa16.1 kmWSW (250°)16.7 km/h44.4 km/hOvercast
9:15 AM-1 °C-8 °C60 %1012.5 hPa16.1 kmWest (270°)18.5 km/hOvercast
9:35 AM-1 °C-8 °C60 %1012.9 hPa16.1 kmWest (270°)16.7 km/hOvercast
9:55 AM-1 °C-7 °C64 %1013.2 hPa16.1 kmWest (260°)20.4 km/hOvercast
10:15 AM-2 °C-6 °C74 %1013.5 hPa8 kmWest (260°)20.4 km/hSnowLight Snow
10:35 AM-1 °C-5 °C75 %1013.9 hPa8 kmWSW (250°)16.7 km/hSnowLight Snow
10:55 AM-1 °C-6 °C69 %1013.9 hPa16.1 kmWest (260°)16.7 km/hSnowLight Snow
11:15 AM-1 °C-7 °C64 %1013.9 hPa16.1 kmWSW (250°)14.8 km/hOvercast
11:35 AM-1 °C-8 °C60 %1013.5 hPa16.1 kmWSW (250°)24.1 km/hOvercast
11:55 AM1 °C-8 °C52 %1013.2 hPa16.1 kmWest (270°)25.9 km/h44.4 km/hOvercast
12:15 PM1 °C-7 °C56 %1013.5 hPa16.1 kmWSW (240°)33.3 km/hOvercast
12:35 PM0 °C-6 °C64 %1013.5 hPa16.1 kmWSW (240°)25.9 km/hOvercast
12:55 PM1 °C-6 °C60 %1013.5 hPa16.1 kmWest (260°)31.5 km/hOvercast
1:15 PM1 °C-5 °C65 %1013.9 hPa16.1 kmWSW (250°)29.6 km/hMostly Cloudy
1:35 PM1 °C-6 °C60 %1014.2 hPa16.1 kmWest (260°)22.2 km/hMostly Cloudy
1:55 PM-1 °C-6 °C69 %1014.2 hPa11.3 kmWest (280°)13 km/hSnowLight Snow
2:15 PM1 °C-6 °C60 %1014.2 hPa16.1 kmWSW (240°)27.8 km/hRainLight Rain
2:35 PM1 °C-6 °C60 %1014.6 hPa14.5 kmWest (260°)22.2 km/hSnowLight Snow
2:55 PM1 °C-7 °C56 %1014.9 hPa16.1 kmWest (260°)14.8 km/hSnowLight Snow
3:15 PM1 °C-7 °C56 %1014.9 hPa16.1 kmWest (280°)22.2 km/hRainLight Rain
3:35 PM1 °C-8 °C52 %1014.9 hPa16.1 kmWest (260°)18.5 km/hOvercast
3:55 PM1 °C-7 °C56 %1014.9 hPa16.1 kmWSW (250°)25.9 km/hOvercast
4:15 PM2 °C-7 °C52 %1014.6 hPa16.1 kmWSW (250°)18.5 km/h38.9 km/hOvercast
4:35 PM2 °C-8 °C48 %1014.6 hPa16.1 kmWSW (240°)22.2 km/hOvercast
4:55 PM2 °C-8 °C48 %1014.6 hPa16.1 kmWSW (250°)24.1 km/hMostly Cloudy
5:15 PM2 °C-8 °C48 %1014.6 hPa16.1 kmWSW (250°)20.4 km/hMostly Cloudy
5:35 PM1 °C-8 °C52 %1014.6 hPa16.1 kmWest (260°)16.7 km/hMostly Cloudy
5:55 PM1 °C-8 °C52 %1014.6 hPa16.1 kmWest (260°)16.7 km/hMostly Cloudy
6:15 PM1 °C-8 °C52 %1014.9 hPa16.1 kmWest (260°)11.1 km/hMostly Cloudy
6:35 PM1 °C-8 °C52 %1014.9 hPa16.1 kmWest (260°)13 km/hOvercast
6:55 PM1 °C-7 °C56 %1015.2 hPa16.1 kmWSW (250°)14.8 km/hOvercast
7:15 PM1 °C-7 °C56 %1014.9 hPa16.1 kmWSW (250°)11.1 km/hOvercast
7:35 PM0 °C-7 °C60 %1014.6 hPa16.1 kmWest (270°)9.3 km/hMostly Cloudy
8:15 PM0 °C-7 °C60 %1015.2 hPa16.1 kmWest (280°)7.4 km/hClear
8:35 PM0 °C-7 °C60 %1014.9 hPa16.1 kmWest (270°)11.1 km/hPartly Cloudy
8:55 PM-1 °C-7 °C64 %1014.9 hPa16.1 kmWNW (290°)9.3 km/hClear
9:15 PM-1 °C-7 °C64 %1014.9 hPa16.1 kmWNW (290°)11.1 km/hClear
9:35 PM-1 °C-7 °C64 %1014.9 hPa16.1 kmWNW (300°)11.1 km/hClear
9:55 PM-1 °C-7 °C64 %1014.6 hPa16.1 kmWNW (290°)11.1 km/hClear
10:15 PM-1 °C-7 °C64 %1014.6 hPa16.1 kmWNW (290°)11.1 km/hScattered Clouds
10:35 PM1 °C-7 °C56 %1014.2 hPa16.1 kmWNW (290°)11.1 km/hMostly Cloudy
10:55 PM1 °C-7 °C56 %1013.9 hPa16.1 kmWNW (290°)9.3 km/hMostly Cloudy
11:15 PM1 °C-7 °C56 %1013.9 hPa16.1 kmWNW (290°)9.3 km/hMostly Cloudy
11:35 PM1 °C-7 °C56 %1013.5 hPa16.1 kmVariable11.1 km/hMostly Cloudy
11:55 PM1 °C-7 °C56 %1013.5 hPa16.1 kmWNW (290°)13 km/hMostly Cloudy
Hourly data recorded from K0A9, located 0 kilometers away from Bluff City, Tennessee







STORIES FROM OUR PARTNERS